This demonstration page uses our WeatherBlox Daily Observations layout. Learn more.

Left ArrowRight Arrow

39.92423, -83.80882

Hourly Observations for February 6, 2021

Temp ( °F °C ) Dew Point ( °F °C ) Humidity (%) Winds ( mph kmh ) Pressure ( in mb ) Visibility ( mi km ) Precip ( " mm )
12:56 am 00:56 Mostly Clear 22 -5.6 18 -7.8 85 85 WNW 13 20 29.92 1013 10 16 0.00 0.00
1:56 am 01:56 Clear 20 -6.7 16 -8.9 85 85 W 10 17 29.95 1014 10 16 0.00 0.00
2:56 am 02:56 Partly Cloudy 19 -7.2 14 -10 81 81 W 15 24 29.98 1015 10 16 0.00 0.00
3:56 am 03:56 Clear 18 -7.8 12 -11.1 77 77 W 14 22 30.00 1016 10 16 0.00 0.00
4:56 am 04:56 Clear 16 -8.9 11 -11.7 80 80 W 10 17 30.02 1017 10 16 0.00 0.00
5:56 am 05:56 Clear 15 -9.4 10 -12.2 80 80 W 9 15 30.04 1017 10 16 0.00 0.00
6:56 am 06:56 Clear 11 -11.7 8 -13.3 88 88 WNW 6 9 30.08 1019 10 16 0.00 0.00
7:56 am 07:56 Sunny 12 -11.1 7 -13.9 80 80 W 8 13 30.11 1020 10 16 0.00 0.00
8:56 am 08:56 Sunny 15 -9.4 8 -13.3 74 74 W 9 15 30.14 1021 10 16 0.00 0.00
9:56 am 09:56 Sunny 18 -7.8 7 -13.9 62 62 W 10 17 30.15 1021 10 16 0.00 0.00
10:56 am 10:56 Sunny 21 -6.1 8 -13.3 57 57 W 12 19 30.17 1022 10 16 0.00 0.00
11:56 am 11:56 Sunny 23 -5 8 -13.3 53 53 W 9 15 30.18 1022 10 16 0.00 0.00
12:56 pm 12:56 Sunny 24 -4.4 7 -13.9 48 48 WSW 6 9 30.16 1021 10 16 0.00 0.00
1:56 pm 13:56 Sunny 27 -2.8 10 -12.2 49 49 W 3 6 30.14 1021 10 16 0.00 0.00
2:56 pm 14:56 Sunny 26 -3.3 9 -12.8 48 48 ESE 5 7 30.12 1020 10 16 0.00 0.00
3:56 pm 15:56 Sunny 26 -3.3 11 -11.7 53 53 E 3 6 30.12 1020 10 16 0.00 0.00
4:56 pm 16:56 Sunny 24 -4.4 15 -9.4 68 68 ESE 7 11 30.12 1020 10 16 0.00 0.00
5:56 pm 17:56 Sunny 20 -6.7 14 -10 78 78 ENE 6 9 30.11 1020 10 16 0.00 0.00
6:56 pm 18:56 Clear 19 -7.2 14 -10 81 81 ENE 8 13 30.09 1019 10 16 0.00 0.00
7:56 pm 19:56 Clear 18 -7.8 13 -10.6 81 81 E 9 15 30.05 1018 10 16 0.00 0.00
8:56 pm 20:56 Mostly Clear 18 -7.8 12 -11.1 77 77 N 5 7 30.04 1017 10 16 0.00 0.00
9:56 pm 21:56 Cloudy 20 -6.7 14 -10 78 78 Calm 30.04 1017 10 16 0.00 0.00
10:56 pm 22:56 Cloudy 21 -6.1 15 -9.4 78 78 NW 6 9 30.04 1017 10 16 0.00 0.00
11:56 pm 23:56 Cloudy 20 -6.7 14 -10 78 78 NNW 9 15 30.04 1017 10 16 0.00 0.00

Powered by AerisWeather